CZ-6A DEB

Satellite information

Favourite Embed

Satellite Type and Status

DEBRISIN ORBIT

Key statistics

Satellite CZ-6A DEB at a glance.

Uptime

1024

Days in orbit

Revolutions

≈ 14.3

Per day

Orbit

SSO

Sun Synchronous Orbit

Inclination

98.7

Latest

Satellite identification and parameters

Extended collection of information and parameters for CZ-6A DEB.

Object identification

Identified? True

Debris? True

Object name: CZ-6A DEB

International designator: 2022-151ADN

Object number (NORAD): 56590

Object ID (CCSDS): 56590

Country: PEOPLES REPUBLIC OF CHINA (PRC)

Current information (Y/N): Y

RCS size: SMALL

Orbital parameters

Period: 100.749 minutes

Inclination: 98.6956 deg

SMA: 7172.206 km

Apoapsis: 821.887 km

Periapsis: 766.255 km

RAAN: 255.5176 deg

Eccentricy: 0.00387833

Argument of periapsis: 219.569 deg

Mean anomaly: 140.266 deg

Mean motion: 14.29300829 rev/day

Mean motion (dot): 0.00002055 rev/day2

B* drag term: 0.00081834844 1/REarth

Two-line elements (TLE)

Creation date: Aug. 30, 2025, 3:38 a.m.

Reference frame: TEME

Reference center: EARTH

Epoch: Aug. 29, 2025, 6:04 p.m. UTC

TLE line 0: 0 CZ-6A DEB

TLE line 1: 1 56590U 22151ADN 25241.75284198 .00002055 00000-0 81835-3 0 9994

TLE line 2: 2 56590 98.6956 255.5176 0038783 219.5690 140.2660 14.29300829122318

Live tracking on map

Real-time ground track for satellite CZ-6A DEB.

In-orbit conjunctions

A list of the most updated potential collisions computed for object CZ-6A DEB.

Target Orbit TCA Probability of collision Miss distance Type
CZ-6A DEB LEO 2025-01-13 14:56:19 0.0003604608 562.0 (m) DEBRIS
NOAA 7 SSO 2024-10-16 08:47:56 0.0001041787 448.0 (m) PAYLOAD
PEGASUS R/B SSO 2024-05-31 12:05:55 0.0002126656 153.0 (m) ROCKET BODY

Associated space launch

Chinese satellite reported for atmospheric/ocean/environmental/spatial parameter research purposes, details TBD.

CZ-6A DEB was lifted into orbit during the mission ‘Long March 6A | Yunhai 3’, on board a Long March 6A space rocket.

The launch took place on Nov. 11, 2022, 10:52 p.m. from Launch Complex 9A.

For more information about the launch, click the button.

Launch to space Long March 6A | Yunhai 3
Long March 6A | Yunhai 3

Agency: N/A

Status: Launch Successful

Launch date: Nov. 11, 2022, 10:52 p.m. UTC

Rocket: Long March 6A

Launch pad: Launch Complex 9A

Location: Taiyuan Satellite Launch Center, People's Republic of China

...

Latest news about this satellite

There are no fresh news available about this satellite. Check back as we update our databases every day.


Newsletter sign-up

Weekly statistics, charts and insights to help you stay on top of the space industry.